CYGFM08

Last updated on Thu Apr 09 2026 00:02:23 GMT+0000 (Coordinated Universal Time)

1 41888U 16078E 26098.10136085 .00024107 00000+0 32756-3 0 9999 2 41888 34.9450 346.4680 0009161 241.9658 118.0140 15.56558208518036
UTC large
Height (km)
Speed (km/s)
/
Latitude / Longitude
Inclination (degrees)
Orbital Period (minutes)
Azimuth
Elevation
Range (km)
Doppler Factor

Next 0 passes for location: London (51.5072 / 0.1276)

Sorry there are no passes over London.